Weather in Uyuni

Bolivia     20°27′42″S   66°49′23″W
temp.,
°C
wind,
m/s
gust,
m/s
humid.,
%
clouds,
%
prec.,
mm/h
press.,
hPa
HPBL,
m
1 december, wed
wed123:00+10nw692284 0.0 1011259
02:00+8nw5628100 0.0 1011143
05:00+7wnw332884 0.0 101341
08:00+10wnw442167 0.0 1014424
11:00+16wnw671041 0.0 10101198
14:00+19wnw774100 0.0 10051783
17:00+19wnw665100 0.0 10031467
20:00+15nw34999 0.0 100549
2 december, thu
thu223:00+11nnw4517100 0.0 101176
02:00+9nw3424100 0.0 101279
05:00+7nw3432100 0.0 101574
08:00+10wnw1129100 0.0 1015360
11:00+16w3319100 0.0 10111483
14:00+20wsw5313100 0.0 10052614
17:00+15ne1083588 0.0 1006829
20:00+12ne8114555 0.0 1009377
3 december, fri
fri323:00+11nnw463831 0.0 1013366
02:00+9nw4623100 0.0 1012247
05:00+9nnw232292 0.0 101346
08:00+11nw3319100 0.0 1014570
11:00+15wsw132498 0.0 10101783
14:00+17ene2229100 0.1 10052391
17:00+14ene764595 0.3 10061481
20:00+14ene994122 0.3 1008859
4 december, sat
sat423:00+12ne3549100 0.0 1011557
02:00+10nne025699 0.0 1012153
05:00+9n1153100 0.0 101341
08:00+11ese025347 0.0 1014703
11:00+15ne1240100 0.3 10102039
14:00+14nne5448100 0.9 1009921
17:00+12ene4555100 2.2 1009268
20:00+12ene465854 2.4 1010272
5 december, sun
sun523:00+12wsw4561100 1.4 1014698
02:00+9s3380100 3.1 1015228
05:00+9sse2273100 0.6 1015276
08:00+8nnw6676100 1.6 1018372
11:00+11ene1260100 1.5 1017869
14:00+13e5452100 1.6 10131240
17:00+14ene765099 0.1 10101097
20:00+11ene7860100 0.1 1013523